Tabellarische Ansicht des 13.7.2022


Die einzelnen Werte des Tages

Uhrzeit Temperatur Luftdruck Luftfeuchte Wind Hi-Wind Taupunkt THW Index Wind Chill Heat Index Solar- strahlung Regen

00:00

18.0 C

1018.7 hpa

78 %

0.0 km/h aus 117

0.0 km/h aus ---

14.1 C

18.2 C

18.0 C

18.2 C

0 W/m

0.00 mm

00:05

18.0 C

1018.7 hpa

79 %

0.0 km/h aus 115

0.0 km/h aus ---

14.3 C

18.3 C

18.0 C

18.3 C

0 W/m

0.00 mm

00:10

18.0 C

1018.7 hpa

80 %

0.0 km/h aus 115

0.0 km/h aus ---

14.5 C

18.3 C

18.0 C

18.3 C

0 W/m

0.00 mm

00:15

18.0 C

1018.5 hpa

80 %

0.0 km/h aus 114

0.0 km/h aus ---

14.5 C

18.3 C

18.0 C

18.3 C

0 W/m

0.00 mm

00:20

18.0 C

1018.5 hpa

80 %

0.0 km/h aus 117

0.0 km/h aus ---

14.5 C

18.3 C

18.0 C

18.3 C

0 W/m

0.00 mm

00:25

18.0 C

1018.5 hpa

80 %

0.0 km/h aus 117

0.0 km/h aus ---

14.5 C

18.3 C

18.0 C

18.3 C

0 W/m

0.00 mm

00:30

18.0 C

1018.3 hpa

80 %

0.0 km/h aus 116

0.0 km/h aus ---

14.5 C

18.3 C

18.0 C

18.3 C

0 W/m

0.00 mm

00:35

17.9 C

1018.3 hpa

80 %

0.0 km/h aus 113

0.0 km/h aus ---

14.4 C

18.3 C

17.9 C

18.3 C

0 W/m

0.00 mm

00:40

17.9 C

1018.3 hpa

80 %

0.0 km/h aus 116

0.0 km/h aus ---

14.4 C

18.3 C

17.9 C

18.3 C

0 W/m

0.00 mm

00:45

17.9 C

1018.0 hpa

81 %

0.0 km/h aus 118

0.0 km/h aus ---

14.6 C

18.3 C

17.9 C

18.3 C

0 W/m

0.00 mm

00:50

18.0 C

1018.0 hpa

81 %

0.0 km/h aus 116

0.0 km/h aus ---

14.7 C

18.3 C

18.0 C

18.3 C

0 W/m

0.00 mm

00:55

17.9 C

1018.0 hpa

81 %

0.0 km/h aus 115

0.0 km/h aus ---

14.6 C

18.3 C

17.9 C

18.3 C

0 W/m

0.00 mm

01:00

17.9 C

1018.1 hpa

81 %

0.0 km/h aus 115

0.0 km/h aus ---

14.6 C

18.3 C

17.9 C

18.3 C

0 W/m

0.00 mm

01:05

17.9 C

1018.1 hpa

81 %

0.0 km/h aus 117

0.0 km/h aus ---

14.6 C

18.3 C

17.9 C

18.3 C

0 W/m

0.00 mm

01:10

17.9 C

1018.1 hpa

81 %

0.0 km/h aus 116

0.0 km/h aus ---

14.6 C

18.3 C

17.9 C

18.3 C

0 W/m

0.00 mm

01:15

17.9 C

1018.4 hpa

81 %

0.0 km/h aus 116

0.0 km/h aus ---

14.6 C

18.3 C

17.9 C

18.3 C

0 W/m

0.00 mm

01:20

17.9 C

1018.4 hpa

81 %

0.0 km/h aus 115

0.0 km/h aus ---

14.6 C

18.2 C

17.9 C

18.2 C

0 W/m

0.00 mm

01:25

17.9 C

1018.4 hpa

81 %

0.0 km/h aus 114

0.0 km/h aus ---

14.6 C

18.2 C

17.9 C

18.2 C

0 W/m

0.00 mm

01:30

17.9 C

1018.2 hpa

81 %

0.0 km/h aus 117

0.0 km/h aus ---

14.6 C

18.2 C

17.9 C

18.2 C

0 W/m

0.00 mm

01:35

17.8 C

1018.2 hpa

81 %

0.0 km/h aus 117

0.0 km/h aus ---

14.5 C

18.1 C

17.8 C

18.1 C

0 W/m

0.00 mm

01:40

17.8 C

1018.2 hpa

81 %

0.0 km/h aus 115

0.0 km/h aus ---

14.5 C

18.1 C

17.8 C

18.1 C

0 W/m

0.00 mm

01:45

17.8 C

1018.2 hpa

81 %

0.0 km/h aus 114

0.0 km/h aus ---

14.5 C

18.1 C

17.8 C

18.1 C

0 W/m

0.00 mm

01:50

17.8 C

1018.2 hpa

81 %

0.0 km/h aus 118

0.0 km/h aus ---

14.5 C

18.1 C

17.8 C

18.1 C

0 W/m

0.00 mm

01:55

17.8 C

1018.2 hpa

81 %

0.0 km/h aus 117

0.0 km/h aus ---

14.5 C

18.1 C

17.8 C

18.1 C

0 W/m

0.00 mm

02:00

17.8 C

1018.0 hpa

81 %

0.0 km/h aus 116

0.0 km/h aus ---

14.5 C

18.1 C

17.8 C

18.1 C

0 W/m

0.00 mm

02:05

17.8 C

1018.0 hpa

82 %

0.0 km/h aus 113

0.0 km/h aus ---

14.7 C

18.1 C

17.8 C

18.1 C

0 W/m

0.00 mm

02:10

17.8 C

1018.0 hpa

82 %

0.0 km/h aus 117

0.0 km/h aus ---

14.7 C

18.1 C

17.8 C

18.1 C

0 W/m

0.00 mm

02:15

17.8 C

1017.6 hpa

82 %

0.0 km/h aus 116

0.0 km/h aus ---

14.7 C

18.2 C

17.8 C

18.2 C

0 W/m

0.00 mm

02:20

17.8 C

1017.6 hpa

82 %

0.0 km/h aus 116

0.0 km/h aus ---

14.7 C

18.2 C

17.8 C

18.2 C

0 W/m

0.00 mm

02:25

17.8 C

1017.6 hpa

82 %

0.0 km/h aus 116

0.0 km/h aus ---

14.7 C

18.1 C

17.8 C

18.1 C

0 W/m

0.00 mm

02:30

17.8 C

1017.8 hpa

82 %

0.0 km/h aus 115

0.0 km/h aus ---

14.7 C

18.1 C

17.8 C

18.1 C

0 W/m

0.00 mm

02:35

17.8 C

1017.8 hpa

82 %

0.0 km/h aus 117

0.0 km/h aus ---

14.7 C

18.1 C

17.8 C

18.1 C

0 W/m

0.00 mm

02:40

17.8 C

1017.8 hpa

82 %

0.0 km/h aus 117

0.0 km/h aus ---

14.7 C

18.1 C

17.8 C

18.1 C

0 W/m

0.00 mm

02:45

17.8 C

1017.3 hpa

82 %

0.0 km/h aus 117

0.0 km/h aus ---

14.7 C

18.1 C

17.8 C

18.1 C

0 W/m

0.00 mm

02:50

17.7 C

1017.3 hpa

82 %

0.0 km/h aus 114

0.0 km/h aus ---

14.6 C

18.0 C

17.7 C

18.0 C

0 W/m

0.00 mm

02:55

17.7 C

1017.3 hpa

82 %

0.0 km/h aus 116

0.0 km/h aus ---

14.6 C

18.0 C

17.7 C

18.0 C

0 W/m

0.00 mm

03:00

17.7 C

1017.3 hpa

82 %

0.0 km/h aus 116

0.0 km/h aus ---

14.6 C

18.0 C

17.7 C

18.0 C

0 W/m

0.00 mm

03:05

17.7 C

1017.3 hpa

82 %

0.0 km/h aus 117

0.0 km/h aus ---

14.6 C

18.0 C

17.7 C

18.0 C

0 W/m

0.00 mm

03:10

17.7 C

1017.3 hpa

82 %

0.0 km/h aus 115

0.0 km/h aus ---

14.6 C

18.0 C

17.7 C

18.0 C

0 W/m

0.00 mm

03:15

17.7 C

1017.3 hpa

82 %

0.0 km/h aus 114

0.0 km/h aus ---

14.6 C

18.0 C

17.7 C

18.0 C

0 W/m

0.00 mm

03:20

17.7 C

1017.3 hpa

82 %

0.0 km/h aus 117

0.0 km/h aus ---

14.6 C

17.9 C

17.7 C

17.9 C

0 W/m

0.00 mm

03:25

17.7 C

1017.3 hpa

82 %

0.0 km/h aus 117

0.0 km/h aus ---

14.6 C

17.9 C

17.7 C

17.9 C

0 W/m

0.00 mm

03:30

17.6 C

1017.3 hpa

82 %

0.0 km/h aus 116

0.0 km/h aus ---

14.5 C

17.9 C

17.6 C

17.9 C

0 W/m

0.00 mm

03:35

17.6 C

1017.3 hpa

82 %

0.0 km/h aus 114

0.0 km/h aus ---

14.5 C

17.9 C

17.6 C

17.9 C

0 W/m

0.00 mm

03:40

17.6 C

1017.3 hpa

82 %

0.0 km/h aus 115

0.0 km/h aus ---

14.5 C

17.9 C

17.6 C

17.9 C

0 W/m

0.00 mm

03:45

17.6 C

1017.3 hpa

83 %

0.0 km/h aus 117

0.0 km/h aus ---

14.7 C

17.9 C

17.6 C

17.9 C

0 W/m

0.00 mm

03:50

17.6 C

1017.3 hpa

83 %

0.0 km/h aus 117

0.0 km/h aus ---

14.7 C

17.9 C

17.6 C

17.9 C

0 W/m

0.00 mm

03:55

17.6 C

1017.3 hpa

83 %

0.0 km/h aus 118

0.0 km/h aus ---

14.6 C

17.8 C

17.6 C

17.8 C

0 W/m

0.00 mm

04:00

17.6 C

1017.0 hpa

83 %

0.0 km/h aus 114

0.0 km/h aus ---

14.7 C

17.9 C

17.6 C

17.9 C

0 W/m

0.00 mm

04:05

17.6 C

1017.0 hpa

83 %

0.0 km/h aus 117

0.0 km/h aus ---

14.6 C

17.8 C

17.6 C

17.8 C

0 W/m

0.00 mm

04:10

17.6 C

1017.0 hpa

83 %

0.0 km/h aus 117

0.0 km/h aus ---

14.6 C

17.8 C

17.6 C

17.8 C

0 W/m

0.00 mm

04:15

17.6 C

1017.0 hpa

83 %

0.0 km/h aus 117

0.0 km/h aus ---

14.6 C

17.8 C

17.6 C

17.8 C

0 W/m

0.00 mm

04:20

17.6 C

1017.0 hpa

83 %

0.0 km/h aus 116

0.0 km/h aus ---

14.6 C

17.8 C

17.6 C

17.8 C

0 W/m

0.00 mm

04:25

17.6 C

1017.0 hpa

84 %

6.4 km/h aus 115

11.3 km/h aus S

14.8 C

17.8 C

17.6 C

17.8 C

0 W/m

0.00 mm

04:30

17.6 C

1016.8 hpa

84 %

6.4 km/h aus 116

9.7 km/h aus S

14.8 C

17.8 C

17.6 C

17.8 C

0 W/m

0.00 mm

04:35

17.6 C

1016.8 hpa

84 %

6.4 km/h aus 117

9.7 km/h aus S

14.8 C

17.8 C

17.6 C

17.8 C

0 W/m

0.00 mm

04:40

17.6 C

1016.8 hpa

84 %

6.4 km/h aus 117

9.7 km/h aus S

14.8 C

17.8 C

17.6 C

17.8 C

0 W/m

0.00 mm

04:45

17.6 C

1016.6 hpa

84 %

6.4 km/h aus 114

9.7 km/h aus S

14.9 C

17.9 C

17.6 C

17.9 C

0 W/m

0.00 mm

04:50

17.6 C

1016.6 hpa

84 %

6.4 km/h aus 116

11.3 km/h aus S

14.9 C

17.9 C

17.6 C

17.9 C

0 W/m

0.00 mm

04:55

17.7 C

1016.6 hpa

83 %

6.4 km/h aus 116

9.7 km/h aus S

14.7 C

17.9 C

17.7 C

17.9 C

0 W/m

0.00 mm

05:00

17.7 C

1016.4 hpa

83 %

6.4 km/h aus 118

8.0 km/h aus S

14.7 C

17.9 C

17.7 C

17.9 C

0 W/m

0.00 mm

05:05

17.7 C

1016.4 hpa

83 %

6.4 km/h aus 115

9.7 km/h aus S

14.7 C

17.9 C

17.7 C

17.9 C

0 W/m

0.00 mm

05:10

17.7 C

1016.4 hpa

83 %

4.8 km/h aus 114

9.7 km/h aus S

14.8 C

18.0 C

17.7 C

18.0 C

0 W/m

0.00 mm

05:15

17.7 C

1016.3 hpa

82 %

3.2 km/h aus 117

9.7 km/h aus S

14.6 C

18.0 C

17.7 C

18.0 C

0 W/m

0.00 mm

05:20

17.8 C

1016.3 hpa

82 %

3.2 km/h aus 117

8.0 km/h aus S

14.7 C

18.1 C

17.8 C

18.1 C

2 W/m

0.00 mm

05:25

17.8 C

1016.3 hpa

82 %

6.4 km/h aus 117

9.7 km/h aus S

14.7 C

18.2 C

17.8 C

18.2 C

5 W/m

0.00 mm

05:30

17.8 C

1016.3 hpa

82 %

4.8 km/h aus 115

9.7 km/h aus S

14.7 C

18.2 C

17.8 C

18.2 C

6 W/m

0.00 mm

05:35

17.9 C

1016.3 hpa

82 %

6.4 km/h aus 116

9.7 km/h aus S

14.8 C

18.3 C

17.9 C

18.3 C

9 W/m

0.00 mm

05:40

17.9 C

1016.3 hpa

82 %

4.8 km/h aus 117

9.7 km/h aus S

14.8 C

18.3 C

17.9 C

18.3 C

13 W/m

0.00 mm

05:45

18.0 C

1016.1 hpa

81 %

4.8 km/h aus 117

11.3 km/h aus S

14.7 C

18.3 C

18.0 C

18.3 C

15 W/m

0.00 mm

05:50

18.0 C

1016.1 hpa

81 %

4.8 km/h aus 116

11.3 km/h aus S

14.7 C

18.3 C

18.0 C

18.3 C

18 W/m

0.00 mm

05:55

18.1 C

1016.1 hpa

81 %

9.7 km/h aus 112

17.7 km/h aus SSW

14.7 C

18.4 C

18.1 C

18.4 C

19 W/m

0.00 mm

06:00

18.2 C

1016.3 hpa

80 %

3.2 km/h aus 116

9.7 km/h aus S

14.7 C

18.5 C

18.2 C

18.5 C

26 W/m

0.00 mm

06:05

18.2 C

1016.3 hpa

80 %

1.6 km/h aus 117

11.3 km/h aus SSW

14.7 C

18.6 C

18.2 C

18.6 C

32 W/m

0.00 mm

06:10

18.3 C

1016.3 hpa

79 %

6.4 km/h aus 117

16.1 km/h aus SSW

14.6 C

18.7 C

18.3 C

18.7 C

26 W/m

0.00 mm

06:15

18.6 C

1016.2 hpa

78 %

8.0 km/h aus 115

16.1 km/h aus SSW

14.6 C

18.9 C

18.6 C

18.9 C

25 W/m

0.00 mm

06:20

18.8 C

1016.2 hpa

77 %

8.0 km/h aus 115

17.7 km/h aus SSW

14.7 C

19.1 C

18.8 C

19.1 C

33 W/m

0.00 mm

06:25

18.9 C

1016.2 hpa

76 %

6.4 km/h aus 117

11.3 km/h aus S

14.6 C

19.3 C

18.9 C

19.3 C

43 W/m

0.00 mm

06:30

19.1 C

1015.8 hpa

76 %

1.6 km/h aus 116

6.4 km/h aus S

14.7 C

19.4 C

19.1 C

19.4 C

43 W/m

0.00 mm

06:35

19.2 C

1015.8 hpa

76 %

3.2 km/h aus 116

8.0 km/h aus S

14.8 C

19.6 C

19.2 C

19.6 C

48 W/m

0.00 mm

06:40

19.3 C

1015.8 hpa

75 %

3.2 km/h aus 114

8.0 km/h aus S

14.7 C

19.6 C

19.3 C

19.6 C

54 W/m

0.00 mm

06:45

19.3 C

1015.9 hpa

75 %

6.4 km/h aus 117

14.5 km/h aus SSW

14.8 C

19.7 C

19.3 C

19.7 C

62 W/m

0.00 mm

06:50

19.4 C

1015.9 hpa

74 %

4.8 km/h aus 116

9.7 km/h aus SSW

14.7 C

19.8 C

19.4 C

19.8 C

68 W/m

0.00 mm

06:55

19.5 C

1015.9 hpa

74 %

9.7 km/h aus 116

19.3 km/h aus SSW

14.7 C

19.9 C

19.5 C

19.9 C

75 W/m

0.00 mm

07:00

19.7 C

1015.9 hpa

74 %

12.9 km/h aus 115

17.7 km/h aus S

14.9 C

19.7 C

19.3 C

20.1 C

73 W/m

0.00 mm

07:05

19.7 C

1015.9 hpa

73 %

12.9 km/h aus 115

20.9 km/h aus SSW

14.7 C

19.8 C

19.4 C

20.1 C

70 W/m

0.00 mm

07:10

19.8 C

1015.9 hpa

73 %

9.7 km/h aus 116

16.1 km/h aus SSW

14.9 C

20.2 C

19.8 C

20.2 C

78 W/m

0.00 mm

07:15

19.9 C

1015.8 hpa

73 %

9.7 km/h aus 117

14.5 km/h aus S

14.9 C

20.3 C

19.9 C

20.3 C

100 W/m

0.00 mm

07:20

19.9 C

1015.8 hpa

73 %

8.0 km/h aus 116

16.1 km/h aus S

15.0 C

20.4 C

19.9 C

20.4 C

112 W/m

0.00 mm

07:25

20.1 C

1015.8 hpa

72 %

9.7 km/h aus 112

17.7 km/h aus S

14.9 C

20.4 C

20.1 C

20.4 C

115 W/m

0.00 mm

07:30

20.1 C

1015.8 hpa

72 %

9.7 km/h aus 116

20.9 km/h aus S

14.9 C

20.5 C

20.1 C

20.5 C

123 W/m

0.00 mm

07:35

20.2 C

1015.8 hpa

72 %

9.7 km/h aus 117

19.3 km/h aus S

15.0 C

20.6 C

20.2 C

20.6 C

134 W/m

0.00 mm

07:40

20.3 C

1015.8 hpa

71 %

9.7 km/h aus 117

17.7 km/h aus S

14.9 C

20.7 C

20.3 C

20.7 C

141 W/m

0.00 mm

07:45

20.4 C

1015.8 hpa

71 %

8.0 km/h aus 115

11.3 km/h aus S

15.0 C

20.7 C

20.4 C

20.7 C

153 W/m

0.00 mm

07:50

20.6 C

1015.8 hpa

71 %

9.7 km/h aus 116

14.5 km/h aus SSW

15.2 C

20.9 C

20.6 C

20.9 C

162 W/m

0.00 mm

07:55

20.7 C

1015.8 hpa

70 %

9.7 km/h aus 117

16.1 km/h aus S

15.1 C

20.9 C

20.7 C

20.9 C

158 W/m

0.00 mm

08:00

20.9 C

1015.5 hpa

70 %

11.3 km/h aus 117

17.7 km/h aus S

15.2 C

21.0 C

20.9 C

21.0 C

175 W/m

0.00 mm

08:05

21.1 C

1015.5 hpa

69 %

8.0 km/h aus 115

14.5 km/h aus S

15.1 C

21.1 C

21.1 C

21.1 C

173 W/m

0.00 mm

08:10

21.2 C

1015.5 hpa

69 %

11.3 km/h aus 116

17.7 km/h aus S

15.3 C

21.3 C

21.2 C

21.3 C

152 W/m

0.00 mm

08:15

21.3 C

1015.4 hpa

67 %

14.5 km/h aus 117

20.9 km/h aus S

15.0 C

20.6 C

20.6 C

21.3 C

172 W/m

0.00 mm

08:20

21.4 C

1015.4 hpa

66 %

14.5 km/h aus 117

20.9 km/h aus S

14.8 C

20.6 C

20.7 C

21.4 C

175 W/m

0.00 mm

08:25

21.6 C

1015.4 hpa

66 %

9.7 km/h aus 116

14.5 km/h aus SSW

14.9 C

21.6 C

21.6 C

21.6 C

182 W/m

0.00 mm

08:30

21.7 C

1015.3 hpa

65 %

12.9 km/h aus 113

19.3 km/h aus S

14.9 C

21.4 C

21.4 C

21.7 C

203 W/m

0.00 mm

08:35

21.8 C

1015.3 hpa

64 %

11.3 km/h aus 117

24.1 km/h aus S

14.7 C

21.8 C

21.8 C

21.8 C

216 W/m

0.00 mm

08:40

22.1 C

1015.3 hpa

64 %

11.3 km/h aus 117

19.3 km/h aus S

14.9 C

22.1 C

22.1 C

22.1 C

234 W/m

0.00 mm

08:45

22.2 C

1015.2 hpa

63 %

14.5 km/h aus 117

20.9 km/h aus S

14.8 C

21.5 C

21.4 C

22.3 C

233 W/m

0.00 mm

08:50

22.3 C

1015.2 hpa

62 %

12.9 km/h aus 114

19.3 km/h aus S

14.7 C

22.2 C

22.1 C

22.4 C

243 W/m

0.00 mm

08:55

22.5 C

1015.2 hpa

62 %

11.3 km/h aus 116

19.3 km/h aus S

14.9 C

22.7 C

22.5 C

22.7 C

259 W/m

0.00 mm

09:00

22.7 C

1015.2 hpa

62 %

11.3 km/h aus 117

16.1 km/h aus S

15.0 C

22.9 C

22.7 C

22.9 C

259 W/m

0.00 mm

09:05

22.8 C

1015.2 hpa

60 %

11.3 km/h aus 117

17.7 km/h aus S

14.7 C

23.1 C

22.8 C

23.1 C

266 W/m

0.00 mm

09:10

23.0 C

1015.2 hpa

60 %

8.0 km/h aus 115

16.1 km/h aus S

14.8 C

23.3 C

23.0 C

23.3 C

298 W/m

0.00 mm

09:15

23.3 C

1015.0 hpa

58 %

11.3 km/h aus 116

17.7 km/h aus S

14.5 C

23.6 C

23.3 C

23.6 C

275 W/m

0.00 mm

09:20

23.4 C

1015.0 hpa

58 %

9.7 km/h aus 117

16.1 km/h aus S

14.7 C

23.7 C

23.4 C

23.7 C

285 W/m

0.00 mm

09:25

23.8 C

1015.0 hpa

58 %

9.7 km/h aus 116

16.1 km/h aus S

15.1 C

24.2 C

23.8 C

24.2 C

317 W/m

0.00 mm

09:30

24.1 C

1014.9 hpa

55 %

9.7 km/h aus 117

19.3 km/h aus S

14.5 C

24.3 C

24.1 C

24.3 C

297 W/m

0.00 mm

09:35

24.4 C

1014.9 hpa

53 %

11.3 km/h aus 114

20.9 km/h aus S

14.2 C

24.5 C

24.4 C

24.5 C

310 W/m

0.00 mm

09:40

24.4 C

1014.9 hpa

52 %

11.3 km/h aus 117

19.3 km/h aus S

13.9 C

24.5 C

24.4 C

24.5 C

323 W/m

0.00 mm

09:45

24.6 C

1014.8 hpa

53 %

9.7 km/h aus 117

17.7 km/h aus SSW

14.3 C

24.7 C

24.6 C

24.7 C

341 W/m

0.00 mm

09:50

24.8 C

1014.8 hpa

51 %

12.9 km/h aus 116

24.1 km/h aus SSW

14.0 C

24.5 C

24.5 C

24.8 C

346 W/m

0.00 mm

09:55

25.1 C

1014.8 hpa

51 %

12.9 km/h aus 115

24.1 km/h aus S

14.2 C

24.7 C

24.8 C

25.0 C

362 W/m

0.00 mm

10:00

25.2 C

1014.7 hpa

49 %

11.3 km/h aus 116

22.5 km/h aus SSW

13.7 C

25.1 C

25.2 C

25.1 C

341 W/m

0.00 mm

10:05

25.2 C

1014.7 hpa

49 %

9.7 km/h aus 116

20.9 km/h aus S

13.7 C

25.1 C

25.2 C

25.1 C

332 W/m

0.00 mm

10:10

25.4 C

1014.7 hpa

49 %

6.4 km/h aus 117

14.5 km/h aus SW

13.9 C

25.4 C

25.4 C

25.4 C

356 W/m

0.00 mm

10:15

25.6 C

1014.6 hpa

50 %

9.7 km/h aus 116

17.7 km/h aus S

14.4 C

25.6 C

25.6 C

25.6 C

375 W/m

0.00 mm

10:20

25.9 C

1014.6 hpa

49 %

6.4 km/h aus 116

16.1 km/h aus SW

14.4 C

25.9 C

25.9 C

25.9 C

337 W/m

0.00 mm

10:25

25.9 C

1014.6 hpa

48 %

9.7 km/h aus 115

17.7 km/h aus S

14.1 C

25.9 C

25.9 C

25.9 C

364 W/m

0.00 mm

10:30

26.7 C

1014.4 hpa

48 %

6.4 km/h aus 116

16.1 km/h aus S

14.7 C

26.6 C

26.7 C

26.6 C

518 W/m

0.00 mm

10:35

27.3 C

1014.4 hpa

47 %

9.7 km/h aus 117

19.3 km/h aus SSW

15.0 C

27.3 C

27.3 C

27.3 C

592 W/m

0.00 mm

10:40

28.1 C

1014.4 hpa

46 %

17.7 km/h aus 114

27.4 km/h aus S

15.4 C

27.3 C

27.2 C

28.2 C

586 W/m

0.00 mm

10:45

27.9 C

1014.3 hpa

44 %

12.9 km/h aus 117

25.7 km/h aus S

14.5 C

27.7 C

27.7 C

27.8 C

489 W/m

0.00 mm

10:50

27.4 C

1014.3 hpa

44 %

12.9 km/h aus 115

25.7 km/h aus S

14.1 C

27.0 C

27.2 C

27.2 C

387 W/m

0.00 mm

10:55

27.0 C

1014.3 hpa

46 %

11.3 km/h aus 117

22.5 km/h aus SW

14.4 C

26.8 C

27.0 C

26.8 C

352 W/m

0.00 mm

11:00

26.9 C

1014.2 hpa

45 %

14.5 km/h aus 115

25.7 km/h aus S

14.0 C

26.2 C

26.4 C

26.7 C

440 W/m

0.00 mm

11:05

27.1 C

1014.2 hpa

46 %

17.7 km/h aus 115

27.4 km/h aus S

14.5 C

25.9 C

26.1 C

26.9 C

502 W/m

0.00 mm

11:10

27.3 C

1014.2 hpa

44 %

16.1 km/h aus 116

27.4 km/h aus S

14.0 C

26.2 C

26.4 C

27.0 C

462 W/m

0.00 mm

11:15

27.3 C

1014.2 hpa

46 %

12.9 km/h aus 117

24.1 km/h aus SW

14.6 C

26.9 C

27.1 C

27.2 C

416 W/m

0.00 mm

11:20

27.2 C

1014.2 hpa

46 %

9.7 km/h aus 115

20.9 km/h aus S

14.6 C

27.1 C

27.2 C

27.1 C

324 W/m

0.00 mm

11:25

27.2 C

1014.2 hpa

46 %

9.7 km/h aus 115

24.1 km/h aus SSW

14.5 C

27.0 C

27.2 C

27.0 C

301 W/m

0.00 mm

11:30

27.2 C

1014.2 hpa

46 %

11.3 km/h aus 116

20.9 km/h aus SSW

14.6 C

27.1 C

27.2 C

27.1 C

377 W/m

0.00 mm

11:35

27.2 C

1014.2 hpa

46 %

12.9 km/h aus 117

30.6 km/h aus SW

14.5 C

26.8 C

26.9 C

27.0 C

418 W/m

0.00 mm

11:40

27.1 C

1014.2 hpa

46 %

14.5 km/h aus 116

27.4 km/h aus SW

14.4 C

26.3 C

26.5 C

26.9 C

403 W/m

0.00 mm

11:45

27.1 C

1014.2 hpa

47 %

8.0 km/h aus 113

20.9 km/h aus S

14.8 C

27.0 C

27.1 C

27.0 C

411 W/m

0.00 mm

11:50

27.5 C

1014.2 hpa

46 %

12.9 km/h aus 117

22.5 km/h aus SSW

14.8 C

27.3 C

27.3 C

27.4 C

509 W/m

0.00 mm

11:55

28.2 C

1014.2 hpa

47 %

11.3 km/h aus 117

25.7 km/h aus SSW

15.8 C

28.6 C

28.2 C

28.6 C

570 W/m

0.00 mm

12:00

28.2 C

1014.2 hpa

46 %

14.5 km/h aus 116

25.7 km/h aus SSW

15.5 C

28.1 C

27.8 C

28.5 C

587 W/m

0.00 mm

12:05

28.7 C

1014.2 hpa

45 %

12.9 km/h aus 114

24.1 km/h aus SW

15.6 C

29.0 C

28.5 C

29.2 C

577 W/m

0.00 mm

12:10

28.3 C

1014.2 hpa

45 %

12.9 km/h aus 115

25.7 km/h aus S

15.2 C

28.3 C

28.1 C

28.5 C

303 W/m

0.00 mm

12:15

29.0 C

1014.2 hpa

45 %

11.3 km/h aus 117

20.9 km/h aus W

15.9 C

29.6 C

29.0 C

29.6 C

615 W/m

0.00 mm

12:20

29.4 C

1014.2 hpa

45 %

9.7 km/h aus 117

22.5 km/h aus SSW

16.2 C

29.9 C

29.4 C

29.9 C

561 W/m

0.00 mm

12:25

29.8 C

1014.2 hpa

43 %

9.7 km/h aus 117

22.5 km/h aus SW

15.9 C

30.2 C

29.8 C

30.2 C

609 W/m

0.00 mm

12:30

29.8 C

1014.0 hpa

42 %

12.9 km/h aus 115

29.0 km/h aus SW

15.5 C

30.0 C

29.7 C

30.1 C

592 W/m

0.00 mm

12:35

29.8 C

1014.0 hpa

42 %

12.9 km/h aus 117

24.1 km/h aus SW

15.5 C

30.0 C

29.7 C

30.1 C

619 W/m

0.00 mm

12:40

30.1 C

1014.0 hpa

41 %

14.5 km/h aus 117

30.6 km/h aus SSW

15.4 C

30.1 C

29.8 C

30.3 C

604 W/m

0.00 mm

12:45

29.7 C

1013.9 hpa

42 %

12.9 km/h aus 117

27.4 km/h aus WSW

15.4 C

29.9 C

29.6 C

30.0 C

483 W/m

0.00 mm

12:50

29.2 C

1013.9 hpa

44 %

12.9 km/h aus 113

25.7 km/h aus SSW

15.7 C

29.6 C

29.1 C

29.7 C

498 W/m

0.00 mm

12:55

29.5 C

1013.9 hpa

43 %

16.1 km/h aus 116

30.6 km/h aus WSW

15.6 C

29.3 C

29.0 C

29.8 C

463 W/m

0.00 mm

13:00

29.8 C

1013.7 hpa

42 %

17.7 km/h aus 117

29.0 km/h aus S

15.5 C

29.5 C

29.2 C

30.1 C

607 W/m

0.00 mm

13:05

30.5 C

1013.7 hpa

42 %

12.9 km/h aus 117

25.7 km/h aus SW

16.1 C

30.9 C

30.4 C

30.9 C

613 W/m

0.00 mm

13:10

31.1 C

1013.7 hpa

41 %

9.7 km/h aus 113

22.5 km/h aus S

16.3 C

31.3 C

31.1 C

31.3 C

605 W/m

0.00 mm

13:15

30.9 C

1013.7 hpa

39 %

19.3 km/h aus 113

37.0 km/h aus S

15.3 C

30.4 C

30.4 C

30.9 C

602 W/m

0.00 mm

13:20

29.8 C

1013.7 hpa

43 %

16.1 km/h aus 117

32.2 km/h aus SW

15.9 C

29.7 C

29.3 C

30.2 C

340 W/m

0.00 mm

13:25

30.2 C

1013.7 hpa

41 %

16.1 km/h aus 116

27.4 km/h aus SSW

15.5 C

30.1 C

29.8 C

30.5 C

617 W/m

0.00 mm

13:30

30.2 C

1013.6 hpa

41 %

14.5 km/h aus 116

27.4 km/h aus S

15.5 C

30.2 C

29.9 C

30.4 C

581 W/m

0.00 mm

13:35

30.3 C

1013.6 hpa

42 %

12.9 km/h aus 114

22.5 km/h aus SSW

15.9 C

30.6 C

30.2 C

30.7 C

426 W/m

0.00 mm

13:40

30.4 C

1013.6 hpa

42 %

9.7 km/h aus 117

20.9 km/h aus W

16.0 C

30.8 C

30.4 C

30.8 C

603 W/m

0.00 mm

13:45

30.9 C

1013.3 hpa

40 %

9.7 km/h aus 117

22.5 km/h aus S

15.7 C

31.0 C

30.9 C

31.0 C

611 W/m

0.00 mm

13:50

31.3 C

1013.3 hpa

41 %

16.1 km/h aus 117

30.6 km/h aus SSW

16.5 C

31.5 C

31.1 C

31.7 C

615 W/m

0.00 mm

13:55

31.1 C

1013.3 hpa

39 %

17.7 km/h aus 115

30.6 km/h aus S

15.5 C

30.7 C

30.8 C

31.0 C

503 W/m

0.00 mm

14:00

30.9 C

1013.2 hpa

40 %

12.9 km/h aus 115

29.0 km/h aus SW

15.7 C

30.9 C

30.8 C

31.0 C

393 W/m

0.00 mm

14:05

30.4 C

1013.2 hpa

41 %

17.7 km/h aus 117

33.8 km/h aus SSW

15.7 C

30.2 C

29.9 C

30.7 C

496 W/m

0.00 mm

14:10

30.9 C

1013.2 hpa

40 %

17.7 km/h aus 117

32.2 km/h aus SW

15.8 C

30.7 C

30.6 C

31.1 C

620 W/m

0.00 mm

14:15

30.8 C

1013.1 hpa

39 %

19.3 km/h aus 116

38.6 km/h aus SW

15.3 C

30.3 C

30.3 C

30.8 C

558 W/m

0.00 mm

14:20

30.6 C

1013.1 hpa

39 %

17.7 km/h aus 114

30.6 km/h aus WSW

15.1 C

30.2 C

30.2 C

30.7 C

431 W/m

0.00 mm

14:25

30.6 C

1013.1 hpa

41 %

14.5 km/h aus 116

27.4 km/h aus W

15.9 C

30.7 C

30.4 C

30.9 C

395 W/m

0.00 mm

14:30

30.2 C

1013.1 hpa

40 %

14.5 km/h aus 118

27.4 km/h aus W

15.1 C

30.1 C

29.9 C

30.3 C

211 W/m

0.00 mm

14:35

29.6 C

1013.1 hpa

40 %

14.5 km/h aus 117

24.1 km/h aus W

14.5 C

29.3 C

29.2 C

29.6 C

265 W/m

0.00 mm

14:40

29.4 C

1013.1 hpa

42 %

12.9 km/h aus 114

29.0 km/h aus S

15.2 C

29.6 C

29.3 C

29.7 C

252 W/m

0.00 mm

14:45

30.4 C

1013.1 hpa

40 %

14.5 km/h aus 116

30.6 km/h aus WSW

15.3 C

30.3 C

30.2 C

30.6 C

634 W/m

0.00 mm

14:50

30.1 C

1013.1 hpa

39 %

14.5 km/h aus 117

25.7 km/h aus S

14.6 C

29.8 C

29.8 C

30.1 C

225 W/m

0.00 mm

14:55

29.7 C

1013.1 hpa

40 %

12.9 km/h aus 117

29.0 km/h aus S

14.6 C

29.6 C

29.6 C

29.7 C

196 W/m

0.00 mm

15:00

29.4 C

1013.2 hpa

41 %

12.9 km/h aus 116

30.6 km/h aus WSW

14.8 C

29.5 C

29.3 C

29.6 C

212 W/m

0.00 mm

15:05

29.6 C

1013.2 hpa

42 %

9.7 km/h aus 114

22.5 km/h aus WSW

15.3 C

29.9 C

29.6 C

29.9 C

407 W/m

0.00 mm

15:10

30.2 C

1013.2 hpa

40 %

9.7 km/h aus 116

24.1 km/h aus S

15.1 C

30.4 C

30.2 C

30.4 C

492 W/m

0.00 mm

15:15

30.4 C

1013.1 hpa

40 %

11.3 km/h aus 117

29.0 km/h aus S

15.3 C

30.6 C

30.4 C

30.6 C

430 W/m

0.00 mm

15:20

29.8 C

1013.1 hpa

40 %

17.7 km/h aus 115

32.2 km/h aus S

14.7 C

29.3 C

29.2 C

29.9 C

426 W/m

0.00 mm

15:25

29.8 C

1013.1 hpa

40 %

17.7 km/h aus 114

32.2 km/h aus WSW

14.8 C

29.3 C

29.2 C

29.9 C

447 W/m

0.00 mm

15:30

29.8 C

1013.1 hpa

41 %

16.1 km/h aus 117

30.6 km/h aus S

15.1 C

29.5 C

29.3 C

29.9 C

438 W/m

0.00 mm

15:35

29.4 C

1013.1 hpa

43 %

12.9 km/h aus 89

30.6 km/h aus S

15.6 C

29.7 C

29.3 C

29.8 C

338 W/m

0.00 mm

15:40

29.3 C

1013.1 hpa

43 %

11.3 km/h aus 116

30.6 km/h aus WSW

15.5 C

29.7 C

29.3 C

29.7 C

316 W/m

0.00 mm

15:45

29.3 C

1013.2 hpa

44 %

12.9 km/h aus 113

29.0 km/h aus S

15.8 C

29.7 C

29.2 C

29.8 C

378 W/m

0.00 mm

15:50

29.2 C

1013.2 hpa

43 %

14.5 km/h aus 116

30.6 km/h aus S

15.4 C

29.3 C

28.9 C

29.6 C

352 W/m

0.00 mm

15:55

28.9 C

1013.2 hpa

44 %

16.1 km/h aus 116

35.4 km/h aus WNW

15.4 C

28.8 C

28.3 C

29.4 C

402 W/m

0.00 mm

16:00

29.2 C

1013.1 hpa

43 %

14.5 km/h aus 117

27.4 km/h aus NW

15.4 C

29.3 C

28.9 C

29.6 C

522 W/m

0.00 mm

16:05

29.2 C

1013.1 hpa

43 %

17.7 km/h aus 114

33.8 km/h aus WNW

15.4 C

28.9 C

28.6 C

29.6 C

448 W/m

0.00 mm

16:10

29.1 C

1013.1 hpa

43 %

14.5 km/h aus 117

32.2 km/h aus S

15.3 C

29.1 C

28.7 C

29.5 C

433 W/m

0.00 mm

16:15

29.3 C

1013.2 hpa

44 %

11.3 km/h aus 115

24.1 km/h aus S

15.8 C

29.8 C

29.3 C

29.8 C

469 W/m

0.00 mm

16:20

29.3 C

1013.2 hpa

43 %

12.9 km/h aus 117

29.0 km/h aus S

15.4 C

29.6 C

29.2 C

29.7 C

470 W/m

0.00 mm

16:25

29.6 C

1013.2 hpa

45 %

9.7 km/h aus 115

25.7 km/h aus S

16.4 C

30.1 C

29.6 C

30.1 C

436 W/m

0.00 mm

16:30

29.3 C

1013.1 hpa

44 %

12.9 km/h aus 116

30.6 km/h aus NW

15.8 C

29.7 C

29.2 C

29.8 C

446 W/m

0.00 mm

16:35

29.7 C

1013.1 hpa

44 %

12.9 km/h aus 116

25.7 km/h aus S

16.1 C

30.1 C

29.6 C

30.2 C

568 W/m

0.00 mm

16:40

29.8 C

1013.1 hpa

44 %

12.9 km/h aus 118

29.0 km/h aus W

16.2 C

30.2 C

29.7 C

30.3 C

469 W/m

0.00 mm

16:45

29.6 C

1013.1 hpa

44 %

9.7 km/h aus 116

22.5 km/h aus WSW

16.0 C

30.0 C

29.6 C

30.0 C

355 W/m

0.00 mm

16:50

29.8 C

1013.1 hpa

42 %

14.5 km/h aus 115

29.0 km/h aus S

15.5 C

29.8 C

29.5 C

30.1 C

512 W/m

0.00 mm

16:55

29.2 C

1013.1 hpa

44 %

11.3 km/h aus 115

30.6 km/h aus W

15.7 C

29.7 C

29.2 C

29.7 C

277 W/m

0.00 mm

17:00

28.8 C

1013.1 hpa

45 %

11.3 km/h aus 117

24.1 km/h aus S

15.7 C

29.4 C

28.8 C

29.4 C

310 W/m

0.00 mm

17:05

28.9 C

1013.1 hpa

46 %

11.3 km/h aus 116

25.7 km/h aus W

16.2 C

29.6 C

28.9 C

29.6 C

274 W/m

0.00 mm

17:10

28.8 C

1013.1 hpa

44 %

11.3 km/h aus 114

25.7 km/h aus S

15.4 C

29.3 C

28.8 C

29.3 C

245 W/m

0.00 mm

17:15

29.2 C

1013.1 hpa

44 %

9.7 km/h aus 116

17.7 km/h aus W

15.7 C

29.7 C

29.2 C

29.7 C

385 W/m

0.00 mm

17:20

29.3 C

1013.1 hpa

44 %

12.9 km/h aus 117

33.8 km/h aus S

15.8 C

29.7 C

29.2 C

29.8 C

437 W/m

0.00 mm

17:25

29.1 C

1013.1 hpa

45 %

12.9 km/h aus 117

29.0 km/h aus WNW

15.9 C

29.5 C

28.9 C

29.7 C

345 W/m

0.00 mm

17:30

29.1 C

1013.1 hpa

46 %

11.3 km/h aus 113

30.6 km/h aus S

16.3 C

29.8 C

29.1 C

29.8 C

382 W/m

0.00 mm

17:35

29.2 C

1013.1 hpa

45 %

6.4 km/h aus 116

19.3 km/h aus S

16.1 C

29.8 C

29.2 C

29.8 C

449 W/m

0.00 mm

17:40

29.1 C

1013.1 hpa

45 %

11.3 km/h aus 117

22.5 km/h aus WNW

16.0 C

29.7 C

29.1 C

29.7 C

284 W/m

0.00 mm

17:45

28.8 C

1013.2 hpa

45 %

12.9 km/h aus 117

30.6 km/h aus S

15.7 C

29.2 C

28.6 C

29.3 C

156 W/m

0.00 mm

17:50

28.4 C

1013.2 hpa

45 %

9.7 km/h aus 115

20.9 km/h aus NW

15.4 C

28.8 C

28.4 C

28.8 C

175 W/m

0.00 mm

17:55

29.1 C

1013.2 hpa

44 %

9.7 km/h aus 114

30.6 km/h aus NW

15.6 C

29.6 C

29.1 C

29.6 C

516 W/m

0.00 mm

18:00

29.3 C

1013.2 hpa

41 %

14.5 km/h aus 116

27.4 km/h aus WNW

14.7 C

29.1 C

28.9 C

29.4 C

466 W/m

0.00 mm

18:05

29.3 C

1013.2 hpa

41 %

12.9 km/h aus 117

25.7 km/h aus WSW

14.7 C

29.4 C

29.2 C

29.5 C

443 W/m

0.00 mm

18:10

29.2 C

1013.2 hpa

40 %

14.5 km/h aus 114

27.4 km/h aus S

14.2 C

29.0 C

28.9 C

29.3 C

411 W/m

0.00 mm

18:15

28.8 C

1013.2 hpa

43 %

11.3 km/h aus 116

29.0 km/h aus WSW

15.0 C

29.2 C

28.8 C

29.2 C

165 W/m

0.00 mm

18:20

28.2 C

1013.2 hpa

46 %

9.7 km/h aus 117

22.5 km/h aus NW

15.5 C

28.5 C

28.2 C

28.5 C

135 W/m

0.00 mm

18:25

27.6 C

1013.2 hpa

48 %

8.0 km/h aus 117

24.1 km/h aus NW

15.6 C

27.7 C

27.6 C

27.7 C

214 W/m

0.00 mm

18:30

27.4 C

1013.3 hpa

48 %

8.0 km/h aus 116

20.9 km/h aus WNW

15.5 C

27.5 C

27.4 C

27.5 C

150 W/m

0.00 mm

18:35

27.4 C

1013.3 hpa

48 %

6.4 km/h aus 113

17.7 km/h aus NW

15.4 C

27.4 C

27.4 C

27.4 C

100 W/m

0.00 mm

18:40

27.2 C

1013.3 hpa

49 %

6.4 km/h aus 117

17.7 km/h aus NW

15.6 C

27.3 C

27.2 C

27.3 C

175 W/m

0.00 mm

18:45

27.2 C

1013.5 hpa

49 %

4.8 km/h aus 118

16.1 km/h aus S

15.5 C

27.2 C

27.2 C

27.2 C

137 W/m

0.00 mm

18:50

27.2 C

1013.5 hpa

49 %

6.4 km/h aus 115

14.5 km/h aus WNW

15.5 C

27.2 C

27.2 C

27.2 C

162 W/m

0.00 mm

18:55

27.2 C

1013.5 hpa

49 %

6.4 km/h aus 113

19.3 km/h aus W

15.5 C

27.2 C

27.2 C

27.2 C

201 W/m

0.00 mm

19:00

27.1 C

1013.5 hpa

49 %

11.3 km/h aus 116

22.5 km/h aus WNW

15.4 C

27.1 C

27.1 C

27.1 C

110 W/m

0.00 mm

19:05

26.9 C

1013.5 hpa

49 %

3.2 km/h aus 117

14.5 km/h aus NW

15.3 C

26.9 C

26.9 C

26.9 C

95 W/m

0.00 mm

19:10

26.9 C

1013.5 hpa

49 %

8.0 km/h aus 116

19.3 km/h aus S

15.3 C

26.9 C

26.9 C

26.9 C

86 W/m

0.00 mm

19:15

26.8 C

1013.7 hpa

49 %

6.4 km/h aus 114

16.1 km/h aus NW

15.2 C

26.8 C

26.8 C

26.8 C

110 W/m

0.00 mm

19:20

26.8 C

1013.7 hpa

49 %

8.0 km/h aus 117

19.3 km/h aus NW

15.2 C

26.8 C

26.8 C

26.8 C

104 W/m

0.00 mm

19:25

26.7 C

1013.7 hpa

50 %

12.9 km/h aus 117

27.4 km/h aus WNW

15.4 C

26.6 C

26.5 C

26.8 C

81 W/m

0.00 mm

19:30

26.4 C

1014.0 hpa

51 %

14.5 km/h aus 116

30.6 km/h aus NNW

15.5 C

25.9 C

25.8 C

26.6 C

81 W/m

0.00 mm

19:35

26.2 C

1014.0 hpa

52 %

9.7 km/h aus 115

27.4 km/h aus S

15.5 C

26.4 C

26.2 C

26.4 C

93 W/m

0.00 mm

19:40

25.8 C

1014.0 hpa

54 %

12.9 km/h aus 115

27.4 km/h aus NW

15.8 C

25.7 C

25.5 C

26.0 C

96 W/m

0.00 mm

19:45

25.5 C

1014.2 hpa

55 %

14.5 km/h aus 117

32.2 km/h aus WNW

15.8 C

25.1 C

24.8 C

25.8 C

85 W/m

0.00 mm

19:50

25.2 C

1014.2 hpa

56 %

11.3 km/h aus 117

27.4 km/h aus S

15.8 C

25.4 C

25.2 C

25.4 C

60 W/m

0.00 mm

19:55

25.0 C

1014.2 hpa

57 %

6.4 km/h aus 115

30.6 km/h aus NNW

15.9 C

25.3 C

25.0 C

25.3 C

53 W/m

0.00 mm

20:00

24.8 C

1014.4 hpa

58 %

4.8 km/h aus 115

20.9 km/h aus S

16.0 C

25.2 C

24.8 C

25.2 C

54 W/m

0.00 mm

20:05

24.7 C

1014.4 hpa

58 %

9.7 km/h aus 117

20.9 km/h aus S

15.8 C

25.0 C

24.7 C

25.0 C

63 W/m

0.00 mm

20:10

24.4 C

1014.4 hpa

58 %

9.7 km/h aus 116

24.1 km/h aus WNW

15.6 C

24.7 C

24.4 C

24.7 C

68 W/m

0.00 mm

20:15

24.3 C

1014.5 hpa

59 %

6.4 km/h aus 115

19.3 km/h aus NW

15.8 C

24.7 C

24.3 C

24.7 C

58 W/m

0.00 mm

20:20

24.2 C

1014.5 hpa

59 %

8.0 km/h aus 115

22.5 km/h aus NW

15.7 C

24.6 C

24.2 C

24.6 C

50 W/m

0.00 mm

20:25

24.1 C

1014.5 hpa

59 %

8.0 km/h aus 117

20.9 km/h aus NW

15.5 C

24.5 C

24.1 C

24.5 C

54 W/m

0.00 mm

20:30

23.9 C

1014.7 hpa

60 %

8.0 km/h aus 116

19.3 km/h aus NNW

15.7 C

24.4 C

23.9 C

24.4 C

64 W/m

0.00 mm

20:35

23.8 C

1014.7 hpa

61 %

4.8 km/h aus 116

19.3 km/h aus S

15.8 C

24.3 C

23.8 C

24.3 C

58 W/m

0.00 mm

20:40

23.7 C

1014.7 hpa

61 %

4.8 km/h aus 115

16.1 km/h aus NW

15.7 C

24.2 C

23.7 C

24.2 C

49 W/m

0.00 mm

20:45

23.5 C

1014.7 hpa

62 %

4.8 km/h aus 117

16.1 km/h aus NW

15.8 C

24.0 C

23.5 C

24.0 C

47 W/m

0.00 mm

20:50

23.4 C

1014.7 hpa

62 %

6.4 km/h aus 117

16.1 km/h aus S

15.7 C

23.9 C

23.4 C

23.9 C

45 W/m

0.00 mm

20:55

23.3 C

1014.7 hpa

63 %

4.8 km/h aus 115

14.5 km/h aus S

15.9 C

23.9 C

23.3 C

23.9 C

35 W/m

0.00 mm

21:00

23.2 C

1014.8 hpa

63 %

6.4 km/h aus 114

14.5 km/h aus NW

15.7 C

23.7 C

23.2 C

23.7 C

30 W/m

0.00 mm

21:05

23.1 C

1014.8 hpa

63 %

3.2 km/h aus 116

17.7 km/h aus NW

15.6 C

23.5 C

23.1 C

23.5 C

25 W/m

0.00 mm

21:10

23.0 C

1014.8 hpa

63 %

3.2 km/h aus 117

9.7 km/h aus NW

15.6 C

23.4 C

23.0 C

23.4 C

24 W/m

0.00 mm

21:15

22.8 C

1015.1 hpa

64 %

1.6 km/h aus 117

9.7 km/h aus NW

15.7 C

23.2 C

22.8 C

23.2 C

19 W/m

0.00 mm

21:20

22.8 C

1015.1 hpa

65 %

4.8 km/h aus 112

14.5 km/h aus NW

15.9 C

23.2 C

22.8 C

23.2 C

15 W/m

0.00 mm

21:25

22.6 C

1015.1 hpa

65 %

3.2 km/h aus 115

12.9 km/h aus NW

15.7 C

22.9 C

22.6 C

22.9 C

11 W/m

0.00 mm

21:30

22.5 C

1015.2 hpa

66 %

4.8 km/h aus 117

11.3 km/h aus NNW

15.8 C

22.8 C

22.5 C

22.8 C

6 W/m

0.00 mm

21:35

22.3 C

1015.2 hpa

66 %

6.4 km/h aus 116

11.3 km/h aus WNW

15.7 C

22.6 C

22.3 C

22.6 C

1 W/m

0.00 mm

21:40

22.2 C

1015.2 hpa

67 %

4.8 km/h aus 113

16.1 km/h aus S

15.8 C

22.5 C

22.2 C

22.5 C

0 W/m

0.00 mm

21:45

22.1 C

1015.5 hpa

67 %

3.2 km/h aus 116

9.7 km/h aus NNW

15.6 C

22.3 C

22.1 C

22.3 C

0 W/m

0.00 mm

21:50

21.9 C

1015.5 hpa

67 %

6.4 km/h aus 117

16.1 km/h aus NNW

15.5 C

22.1 C

21.9 C

22.1 C

0 W/m

0.00 mm

21:55

21.8 C

1015.5 hpa

68 %

4.8 km/h aus 118

17.7 km/h aus WNW

15.7 C

22.0 C

21.8 C

22.0 C

0 W/m

0.00 mm

22:00

21.7 C

1015.7 hpa

68 %

8.0 km/h aus 116

17.7 km/h aus NNW

15.5 C

21.8 C

21.7 C

21.8 C

0 W/m

0.00 mm

22:05

21.5 C

1015.7 hpa

68 %

3.2 km/h aus 115

14.5 km/h aus NNW

15.3 C

21.6 C

21.5 C

21.6 C

0 W/m

0.00 mm

22:10

21.4 C

1015.7 hpa

69 %

3.2 km/h aus 117

11.3 km/h aus NW

15.5 C

21.5 C

21.4 C

21.5 C

0 W/m

0.00 mm

22:15

21.2 C

1015.8 hpa

69 %

4.8 km/h aus 117

19.3 km/h aus NW

15.3 C

21.3 C

21.2 C

21.3 C

0 W/m

0.00 mm

22:20

21.1 C

1015.8 hpa

69 %

4.8 km/h aus 117

11.3 km/h aus NNW

15.1 C

21.1 C

21.1 C

21.1 C

0 W/m

0.00 mm

22:25

20.8 C

1015.8 hpa

70 %

4.8 km/h aus 114

16.1 km/h aus NNW

15.2 C

21.0 C

20.8 C

21.0 C

0 W/m

0.00 mm

22:30

20.7 C

1015.9 hpa

70 %

3.2 km/h aus 116

11.3 km/h aus N

15.1 C

20.9 C

20.7 C

20.9 C

0 W/m

0.00 mm

22:35

20.6 C

1015.9 hpa

71 %

4.8 km/h aus 117

9.7 km/h aus NW

15.1 C

20.8 C

20.6 C

20.8 C

0 W/m

0.00 mm

22:40

20.3 C

1015.9 hpa

71 %

6.4 km/h aus 117

14.5 km/h aus NNW

14.9 C

20.7 C

20.3 C

20.7 C

0 W/m

0.00 mm

22:45

20.2 C

1016.1 hpa

72 %

3.2 km/h aus 114

9.7 km/h aus NW

15.0 C

20.6 C

20.2 C

20.6 C

0 W/m

0.00 mm

22:50

20.1 C

1016.1 hpa

72 %

0.0 km/h aus 115

0.0 km/h aus ---

14.9 C

20.4 C

20.1 C

20.4 C

0 W/m

0.00 mm

22:55

19.9 C

1016.1 hpa

73 %

3.2 km/h aus 116

6.4 km/h aus NW

14.9 C

20.3 C

19.9 C

20.3 C

0 W/m

0.00 mm

23:00

19.8 C

1016.2 hpa

73 %

3.2 km/h aus 118

8.0 km/h aus N

14.8 C

20.2 C

19.8 C

20.2 C

0 W/m

0.00 mm

23:05

19.6 C

1016.2 hpa

73 %

3.2 km/h aus 115

8.0 km/h aus NNW

14.6 C

19.9 C

19.6 C

19.9 C

0 W/m

0.00 mm

23:10

19.5 C

1016.2 hpa

74 %

0.0 km/h aus 114

11.3 km/h aus NNW

14.7 C

19.9 C

19.5 C

19.9 C

0 W/m

0.00 mm

23:15

19.3 C

1016.2 hpa

74 %

1.6 km/h aus 117

8.0 km/h aus NW

14.5 C

19.6 C

19.3 C

19.6 C

0 W/m

0.00 mm

23:20

19.2 C

1016.2 hpa

75 %

3.2 km/h aus 116

8.0 km/h aus NW

14.6 C

19.5 C

19.2 C

19.5 C

0 W/m

0.00 mm

23:25

19.1 C

1016.2 hpa

76 %

0.0 km/h aus 117

6.4 km/h aus NW

14.7 C

19.4 C

19.1 C

19.4 C

0 W/m

0.00 mm

23:30

18.9 C

1016.3 hpa

76 %

0.0 km/h aus 115

4.8 km/h aus NW

14.6 C

19.3 C

18.9 C

19.3 C

0 W/m

0.00 mm

23:35

18.8 C

1016.3 hpa

76 %

0.0 km/h aus 115

3.2 km/h aus NW

14.5 C

19.2 C

18.8 C

19.2 C

0 W/m

0.00 mm

23:40

18.7 C

1016.3 hpa

76 %

0.0 km/h aus 117

0.0 km/h aus ---

14.4 C

19.0 C

18.7 C

19.0 C

0 W/m

0.00 mm

23:45

18.6 C

1016.4 hpa

77 %

4.8 km/h aus 116

11.3 km/h aus NNW

14.4 C

18.8 C

18.6 C

18.8 C

0 W/m

0.00 mm

23:50

18.4 C

1016.4 hpa

77 %

1.6 km/h aus 115

6.4 km/h aus NNW

14.3 C

18.7 C

18.4 C

18.7 C

0 W/m

0.00 mm

23:55

18.3 C

1016.4 hpa

78 %

1.6 km/h aus 114

4.8 km/h aus NW

14.4 C

18.6 C

18.3 C

18.6 C

0 W/m

0.00 mm